Weather Roundup
Issued by NWS

Home | Current Version | Previous Version | Graphics & Text | Print | Product List | Glossary Off
Versions: 1 2 3 4 5 6 7 8 9 10 11 12 13 14 15 16 17 18 19 20 21 22 23 24 25 26 27 28 29 30 31 32 33 34 35 36 37 38 39 40 41 42 43 44 45 46 47 48 49 50

000
NZUS93 KARX 230459
HRRWXR

CURRENT HOURLY OBSERVATIONS ACROSS
MUCH OF THE UPPER MISSISSIPPI VALLEY
NATIONAL WEATHER SERVICE LA CROSSE WI
1100 PM CST SAT NOV 22 2014


...SOUTHEAST MINNESOTA...


CITY           SKY/WX    TMP DP  RH WIND       PRES   REMARKS
ROCHESTER      FOG       47  47 100 S20G29    29.58F VSB 1/4
ROCHESTER/MAYO CLOUDY    48  48  99 S15G25    29.57F
WINONA         CLOUDY    43  43 100 SE5       29.61F FOG
AUSTIN         DRZL/FOG  46  46 100 S10G17    29.56F VSB 1/4
ALBERT LEA     CLOUDY    48  48 100 S14G23    29.54F FOG
DODGE CENTER   FOG       46  46 100 S21       29.55F VSB 1/4
PRESTON        FOG       47  47  98 S18G25    29.60F VSB 1/2
OWATONNA       CLOUDY    46  45  93 S14       29.54R FOG
FARIBAULT      CLOUDY    45  43  93 S9        29.53S FOG
$$

...ELSEWHERE IN MINNESOTA...


CITY           SKY/WX    TMP DP  RH WIND       PRES   REMARKS
MINNEAPOLIS    CLOUDY    38  37  97 SE9       29.52F FOG     WCI  31
INTNL FALLS    CLOUDY    33  29  85 E8        29.44F WCI  26
DULUTH         FOG       33  31  92 SE13      29.53F VSB 1/4 WCI  24
RED WING         N/A     41  39  93 SE7       29.55F FOG
REDWOOD FALLS  CLOUDY    41  39  93 S13       29.44F FOG
MANKATO        CLOUDY    46  43  87 S14       29.50F
WORTHINGTON    CLOUDY    48  46  93 SW16G25   29.49R
FAIRMONT       CLOUDY    50  45  81 S20       29.51F
$$

...SOUTHWEST WISCONSIN...


CITY           SKY/WX    TMP DP  RH WIND       PRES   REMARKS
LA CROSSE      CLOUDY    47  45  93 S13       29.63F FOG
PRAIRIE DU CHI CLOUDY    53  49  87 S3        29.68F
BOSCOBEL       CLOUDY    54  49  83 S8G17     29.69F
LONE ROCK      CLOUDY    55  48  77 S9        29.72F HAZE
PLATTEVILLE    CLOUDY    51  49  94 S10       29.74S
FORT MC COY    CLOUDY    48  47  97 S9        29.67F FOG
CAMP DOUGLAS   CLOUDY    45  45 100 SE5       29.67F FOG
VIROQUA        CLOUDY    47  47 100 S10       29.67S VSB 1/4
WIS DELLS      FOG       47  46  95 S8        29.71F VSB 3/4
$$

...ELSEWHERE IN WISCONSIN...


CITY           SKY/WX    TMP DP  RH WIND       PRES   REMARKS
MILWAUKEE      MOCLDY    47  44  90 SW8       29.80F
MADISON        CLOUDY    50  47  89 S10       29.75F
GREEN BAY      CLOUDY    39  38  96 S7        29.74F FOG     WCI  34
EAU CLAIRE     NOT AVBL
BLACK RVR FLS  CLOUDY    42  42 100 CALM      29.65F FOG
MEDFORD        FOG       35  35 100 SE7       29.65F VSB 1/2 WCI  29
WAUSAU         FOG       35  35 100 SE5       29.67F VSB 1/4 WCI  31
WIS RAPIDS     FOG       40  38  93 SE6       29.69F VSB 1/2
MARSHFIELD     FOG       38  37  97 SE6       29.66F VSB 1/4 WCI  33
RICE LAKE      FOG       35  35  98 SE9       29.61F VSB 1/4 WCI  28
$$

...NORTHEAST IOWA...


CITY           SKY/WX    TMP DP  RH WIND       PRES   REMARKS
DECORAH        CLOUDY    52  52 100 S12G21    29.64S FOG
MASON CITY     CLOUDY    51  50  96 S15G23    29.59F FOG
CHARLES CITY   CLOUDY    50  50 100 S16       29.62F FOG
OELWEIN        CLOUDY    52  50  93 S18       29.66F
$$

...ELSEWHERE IN IOWA...


CITY           SKY/WX    TMP DP  RH WIND       PRES   REMARKS
DES MOINES     CLOUDY    55  49  80 SW22G28   29.65S
IOWA CITY      CLOUDY    49  47  93 SE8       29.74F
FORT DODGE     CLOUDY    54  50  87 S17G24    29.58F
$$

...NORTHERN ILLINOIS...


CITY           SKY/WX    TMP DP  RH WIND       PRES   REMARKS
CHICAGO-OHARE  CLOUDY    52  46  80 S12G24    29.83F
CHICAGO-MIDWAY CLOUDY    53  47  79 SW13      29.85F
MOLINE         CLOUDY    51  47  86 S17G24    29.76F
ROCKFORD       MOCLDY    49  45  86 S14       29.82S
PEORIA         CLOUDY    53  47  79 S12       29.83F
$$

NOTE: "FAIR" INDICATES FEW OR NO CLOUDS BELOW 12,000 FEET WITH NO
SIGNIFICANT WEATHER AND/OR OBSTRUCTIONS TO VISIBILITY. WIND
SPEEDS ARE IN MILES-PER-HOUR.



USA.gov is the U.S. government's official web portal to all federal, state and local government web resources and services.